Regional Weather Roundup
Issued by NWS Bismarck, ND

Home | Current Version | Previous Version | Text Only | Print | Product List | Glossary On
Versions: 1 2 3 4 5 6 7 8 9 10 11 12 13 14 15 16 17 18 19 20 21 22 23 24 25 26 27 28 29 30 31 32 33 34 35 36 37 38 39 40 41 42 43 44 45 46 47 48 49 50
000
ASUS43 KBIS 281202
RWRBIS

NWR BROADCAST TEXT
NATIONAL WEATHER SERVICE BISMARCK ND
700 AM CDT FRI AUG 28 2015

NOTE: "FAIR" INDICATES FEW OR NO CLOUDS BELOW 12,000 FEET WITH NO
SIGNIFICANT WEATHER AND/OR OBSTRUCTIONS TO VISIBILITY.


CITY           SKY/WX    TMP DP  RH WIND       PRES   REMARKS
WILLISTON      PTCLDY    62  60  93 S3        29.88R
MINOT          PTCLDY    67  58  72 SW13      29.82S
MINOT AFB      PTCLDY    65  64  94 W9        29.81S
BISMARCK       CLEAR     59  58  96 SE6       29.91S
DICKINSON      CLEAR     58  54  86 SW3       29.91R
GARRISON         N/A     62  58  86 NW3       29.88R
HETTINGER ARPT PTCLDY    56  53  90 CALM      29.96S
JAMESTOWN      PTCLDY    59  57  93 CALM      29.90R
HAZEN          FAIR      59  55  88 SW5       29.90R
OAKES          FOG       63  63 100 S9        29.92S VSB<1/4
STANLEY        FAIR      63  63 100 CALM      29.88S
$$

CITY           SKY/WX    TMP DP  RH WIND       PRES   REMARKS
GRAND FORKS    MOCLDY    63  61  93 S8        29.85F
GRAND FORKS AF MOCLDY    62  61  96 SW5       29.86F
DEVILS LAKE    CLOUDY    64  55  72 S9        29.85F
FARGO          CLOUDY    65  63  93 S9        29.90F FOG
CAVALIER       FAIR      63  61  94 CALM      29.82R
GRAFTON        FAIR      64  64 100 S8        29.83S
GWINNER          N/A     63  63 100 SW7       29.93R
LANGDON        FAIR      63  63 100 S7        29.84F
$$

CITY           SKY/WX    TMP DP  RH WIND       PRES   REMARKS
ABERDEEN       MOCLDY    61  60  97 S6        29.94R FOG
MOBRIDGE       FOG       66  66 100 CALM      29.92R VSB 1
BUFFALO          N/A     58  54  86 S5        29.93R
RAPID CITY     CLEAR     57  52  83 NW6       30.00R
GLASGOW        CLEAR     59  52  77 W3        29.89S
SIDNEY         CLEAR     57  54  88 S3        29.88S
WOLF POINT     PTCLDY    56  53  90 CALM      29.89R
GLENDIVE       CLEAR     57  52  82 SW5       29.93S
MILES CITY     MOCLDY    64  46  52 SW5       29.96R
BAKER          CLEAR     61  50  67 CALM      29.98R
$$

CITY           SKY/WX    TMP DP  RH WIND       PRES   REMARKS
BILLINGS       PTCLDY    66  47  50 SW18      30.08R
GREAT FALLS    CLOUDY    60  39  45 SW14      30.03F HAZE
$$



USA.gov is the U.S. government's official web portal to all federal, state and local government web resources and services.